Weather History for Kansas City International, MO

Change the Weather History Date:

Friday, January 31, 2014

  Actual Average Record
Temperature  
Mean Temperature 23 °F 30 °F  
Max Temperature 27 °F 39 °F 70 °F (2009)
Min Temperature 18 °F 20 °F -10 °F (1985)
Degree Days  
Heating Degree Days 42 35  
Month to date heating degree days 1247 1114  
Since 1 July heating degree days 3444 3164  
Cooling Degree Days 0 0  
Month to date cooling degree days 0 0  
Year to date cooling degree days 0 0  
Moisture  
Dew Point 13 °F    
Average Humidity 65    
Maximum Humidity 80    
Minimum Humidity 50    
Precipitation  
Precipitation 0.03 in 0.04 in 0.83 in (1988)
Month to date precipitation 0.39 1.07  
Year to date precipitation 0.39 1.07  
Snow  
Snow 0.50 in 0.20 in 4.00 in (1981)
Month to date snowfall 5.6 4.6  
Since 1 July snowfall 11.3 10.8  
Snow Depth T in    
Sea Level Pressure  
Sea Level Pressure 30.03 in    
Wind  
Wind Speed 12 mph (NE)    
Max Wind Speed 17 mph    
Max Gust Speed 21 mph    
Visibility 7 miles    
Events Snow    
T = Trace of Precipitation, MM = Missing Value Source: NWS Daily Summary

Daily Weather History Graph

Daily Weather History Graph

Search for Another Location

Airport:

Trip Planner

Search our weather history database for the weather conditions in past years. The results will help you decide how hot, cold, wet, or windy it might be!

Date:

Astronomy

Jan. 31, 2014 Rise Set
Actual Time 7:26 AM CST 5:38 PM CST
Civil Twilight 6:58 AM CST 6:06 PM CST
Nautical Twilight 6:26 AM CST 6:38 PM CST
Astronomical Twilight 5:54 AM CST 7:10 PM CST
Moon 7:37 AM CST (1/31) 7:02 PM CST (1/31)
Length of Visible Light 11h 08m
Length of Day
10h 11m
New Moon, 1% of the Moon is Illuminated
Jan 31
New Moon
Feb 6
First Quarter
Feb 14
Full
Feb 22
Last Quarter
Mar 1
New

Hourly Weather History & Observations

Time (CST) Temp. Windchill Dew Point Humidity Pressure Visibility Wind Dir Wind Speed Gust Speed Precip Events Conditions
12:53 AM 27.0 °F 16.7 °F 12.9 °F 56% 30.03 in 10.0 mi NNE 11.5 mph - N/A   Overcast
1:53 AM 25.0 °F 12.2 °F 10.0 °F 53% 30.02 in 10.0 mi NNE 16.1 mph - N/A   Overcast
2:53 AM 24.1 °F 13.7 °F 9.0 °F 53% 30.04 in 9.0 mi NE 10.4 mph - 0.00 in Snow Light Snow
3:53 AM 24.1 °F 12.0 °F 9.0 °F 53% 30.04 in 10.0 mi NNE 13.8 mph - 0.00 in   Overcast
4:53 AM 23.0 °F 10.6 °F 7.0 °F 50% 30.04 in 10.0 mi NNE 13.8 mph - N/A   Overcast
5:53 AM 21.9 °F 10.4 °F 7.0 °F 53% 30.07 in 10.0 mi NE 11.5 mph - N/A   Overcast
6:53 AM 21.0 °F 7.6 °F 7.0 °F 55% 30.08 in 10.0 mi NE 15.0 mph - 0.00 in Snow Light Snow
7:53 AM 19.0 °F 5.0 °F 10.9 °F 71% 30.10 in 6.0 mi NE 15.0 mph - 0.00 in Snow Light Snow
8:06 AM 18.0 °F 3.6 °F 12.0 °F 78% 30.06 in 1.8 mi NE 15.0 mph - 0.00 in Snow Light Snow
8:12 AM 18.0 °F 4.8 °F 12.0 °F 78% 30.06 in 2.0 mi NE 12.7 mph - 0.00 in Snow Light Snow
8:34 AM 18.0 °F 4.2 °F 12.0 °F 78% 30.07 in 2.0 mi NE 13.8 mph - 0.00 in Snow Light Snow
8:53 AM 18.0 °F 4.8 °F 12.0 °F 78% 30.12 in 2.0 mi NNE 12.7 mph - 0.00 in Snow Light Snow
9:02 AM 18.0 °F 4.8 °F 12.0 °F 78% 30.08 in 5.0 mi NNE 12.7 mph - 0.00 in Snow Light Snow
9:53 AM 18.0 °F 4.2 °F 12.0 °F 78% 30.12 in 7.0 mi NE 13.8 mph - 0.00 in Snow Light Snow
10:45 AM 19.0 °F 6.1 °F 12.9 °F 77% 30.09 in 2.5 mi NE 12.7 mph - 0.01 in Snow Light Snow
10:53 AM 18.0 °F 4.8 °F 12.9 °F 81% 30.13 in 2.0 mi NE 12.7 mph - 0.01 in Snow Light Snow
11:03 AM 19.0 °F 6.8 °F 12.9 °F 77% 30.09 in 2.0 mi NE 11.5 mph - 0.01 in Snow Light Snow
11:31 AM 19.0 °F 6.8 °F 14.0 °F 81% 30.07 in 4.0 mi NE 11.5 mph - 0.01 in Snow Light Snow
11:53 AM 19.9 °F 7.3 °F 12.9 °F 74% 30.10 in 7.0 mi NNE 12.7 mph - 0.01 in Snow Light Snow
12:53 PM 19.9 °F 6.7 °F 14.0 °F 78% 30.07 in 6.0 mi NNE 13.8 mph - 0.00 in Snow Light Snow
1:53 PM 19.9 °F 6.2 °F 14.0 °F 78% 30.04 in 9.0 mi NNE 15.0 mph - 0.00 in Snow Light Snow
2:53 PM 21.0 °F 8.6 °F 14.0 °F 74% 30.03 in 9.0 mi NE 12.7 mph - 0.00 in   Overcast
3:53 PM 19.9 °F 7.3 °F 14.0 °F 78% 30.03 in 5.0 mi NE 12.7 mph - 0.00 in Snow Light Snow
4:53 PM 19.9 °F 8.6 °F 14.0 °F 78% 30.02 in 7.0 mi NE 10.4 mph - 0.00 in Snow Light Snow
5:07 PM 19.9 °F 7.9 °F 14.0 °F 78% 29.98 in 7.0 mi ENE 11.5 mph - 0.00 in Snow Light Snow
5:48 PM 19.4 °F 8.6 °F 14.0 °F 80% 29.98 in 9.0 mi ENE 9.2 mph - 0.00 in Snow Light Snow
5:53 PM 19.9 °F 7.9 °F 14.0 °F 78% 30.01 in 9.0 mi NE 11.5 mph - 0.00 in Snow Light Snow
6:09 PM 19.9 °F 8.6 °F 15.1 °F 81% 29.97 in 9.0 mi NE 10.4 mph - 0.00 in   Light Freezing Drizzle
6:31 PM 19.9 °F 9.3 °F 15.1 °F 81% 29.98 in 10.0 mi ENE 9.2 mph - 0.00 in   Overcast
6:53 PM 19.9 °F 8.6 °F 15.1 °F 81% 30.01 in 10.0 mi ENE 10.4 mph - 0.00 in   Overcast
7:27 PM 19.0 °F 7.5 °F 16.0 °F 88% 29.97 in 7.0 mi ENE 10.4 mph - 0.00 in   Light Freezing Drizzle
7:37 PM 19.0 °F 7.5 °F 16.0 °F 88% 29.97 in 7.0 mi ENE 10.4 mph - 0.00 in   Light Freezing Drizzle
7:53 PM 19.0 °F 6.8 °F 16.0 °F 88% 30.00 in 6.0 mi ENE 11.5 mph - 0.00 in   Light Freezing Drizzle
8:50 PM 19.4 °F 11.5 °F 15.8 °F 86% 29.97 in 10.0 mi ENE 5.8 mph - 0.00 in   Overcast
8:53 PM 19.0 °F 8.2 °F 16.0 °F 88% 30.01 in 10.0 mi ENE 9.2 mph - 0.00 in   Overcast
9:29 PM 19.0 °F 6.8 °F 16.0 °F 88% 29.94 in 4.0 mi ENE 11.5 mph - 0.00 in   Light Freezing Drizzle
9:53 PM 19.0 °F 7.5 °F 16.0 °F 88% 29.98 in 6.0 mi ENE 10.4 mph - 0.00 in   Light Freezing Drizzle
10:53 PM 19.0 °F 6.1 °F 16.0 °F 88% 29.96 in 5.0 mi NE 12.7 mph - 0.00 in   Overcast
11:18 PM 19.0 °F 9.0 °F 16.0 °F 88% 29.93 in 1.0 mi NE 8.1 mph - 0.00 in Snow Light Snow
11:53 PM 19.0 °F 9.0 °F 16.0 °F 88% 29.95 in 1.0 mi East 8.1 mph - 0.00 in Snow Light Snow